,,,PA_Meas_PMT16A,,PR_Meas_QMR101_102,,RH_Meas_QMH101,,SR_Meas_QMS101,,TA_Meas_QMH101,,GenWind,,GenWind,
date,time,status,PA,status,PR,status,RH,status,SR,status,TA,status,DirAvg,status,SpdAvg,
2011-09-14, 00:00:04,VALID,1005.36,VALID,0,INVALID,163.685,VALID,0,VALID,25.1034,VALID,169,VALID,0,
2011-09-14, 00:01:04,VALID,1005.33,VALID,0,INVALID,163.693,VALID,0,VALID,25.045,VALID,175,VALID,0,
2011-09-14, 00:02:04,VALID,1005.36,VALID,0,INVALID,163.647,VALID,0.100563,VALID,25.0255,VALID,176,VALID,0,
2011-09-14, 00:03:04,VALID,1005.3,VALID,0,INVALID,163.678,VALID,0,VALID,25.0255,VALID,109,VALID,0,
2011-09-14, 00:04:04,VALID,1005.31,VALID,0,INVALID,163.685,VALID,0,VALID,25.0644,VALID,134,VALID,0,
2011-09-14, 00:05:04,VALID,1005.35,VALID,0,INVALID,163.708,VALID,0,VALID,25.1053,VALID,121,VALID,0,
2011-09-14, 00:06:04,VALID,1005.33,VALID,0,INVALID,163.685,VALID,0,VALID,25.0839,VALID,123,VALID,0,
2011-09-14, 00:07:04,VALID,1005.34,VALID,0,INVALID,163.685,VALID,0.100563,VALID,25.0839,VALID,115,VALID,0,
2011-09-14, 00:08:04,VALID,1005.36,VALID,0,INVALID,163.67,VALID,0,VALID,25.0644,VALID,123,VALID,0,
2011-09-14, 00:09:04,VALID,1005.37,VALID,0,INVALID,163.678,VALID,0,VALID,25.0839,VALID,95,VALID,0,
2011-09-14, 00:10:04,VALID,1005.34,VALID,0,INVALID,163.678,VALID,0,VALID,25.0839,VALID,96,VALID,0,
2011-09-14, 00:11:04,VALID,1005.32,VALID,0,INVALID,163.693,VALID,0,VALID,25.0644,VALID,77,VALID,0,
2011-09-14, 00:12:04,VALID,1005.33,VALID,0,INVALID,163.685,VALID,0,VALID,25.0663,VALID,73,VALID,0,
2011-09-14, 00:13:04,VALID,1005.29,VALID,0,INVALID,163.685,VALID,0,VALID,25.0255,VALID,74,VALID,0,
2011-09-14, 00:14:04,VALID,1005.34,VALID,0,INVALID,163.685,VALID,0,VALID,24.9866,VALID,74,VALID,0,
2011-09-14, 00:15:04,VALID,1005.33,VALID,0,INVALID,163.693,VALID,0,VALID,25.0079,VALID,74,VALID,0,
2011-09-14, 00:16:04,VALID,1005.37,VALID,0,INVALID,163.685,VALID,0.100563,VALID,24.9671,VALID,74,VALID,0,
2011-09-14, 00:17:04,VALID,1005.39,VALID,0,INVALID,163.701,VALID,0,VALID,24.9476,VALID,74,VALID,0,
2011-09-14, 00:18:04,VALID,1005.42,VALID,0,INVALID,163.708,VALID,0,VALID,24.9476,VALID,74,VALID,0,
2011-09-14, 00:19:04,VALID,1005.43,VALID,0,INVALID,163.701,VALID,0.100563,VALID,24.9068,VALID,74,VALID,0,
2011-09-14, 00:20:04,VALID,1005.4,VALID,0,INVALID,163.716,VALID,0,VALID,24.9282,VALID,74,VALID,0,
2011-09-14, 00:21:04,VALID,1005.41,VALID,0,INVALID,163.708,VALID,0,VALID,24.8873,VALID,74,VALID,0,
2011-09-14, 00:22:04,VALID,1005.39,VALID,0,INVALID,163.701,VALID,0,VALID,24.9087,VALID,74,VALID,0,
2011-09-14, 00:23:04,VALID,1005.37,VALID,0,INVALID,163.685,VALID,0,VALID,24.9068,VALID,74,VALID,0,
2011-09-14, 00:24:04,VALID,1005.37,VALID,0,INVALID,163.693,VALID,0,VALID,24.9068,VALID,74,VALID,0,
2011-09-14, 00:25:04,VALID,1005.38,VALID,0,INVALID,163.67,VALID,0.100563,VALID,24.9282,VALID,74,VALID,0,
2011-09-14, 00:26:04,VALID,1005.38,VALID,0,INVALID,163.678,VALID,0,VALID,24.9068,VALID,74,VALID,0,
2011-09-14, 00:27:04,VALID,1005.38,VALID,0,INVALID,163.723,VALID,0.100563,VALID,24.9282,VALID,74,VALID,0,
2011-09-14, 00:28:04,VALID,1005.42,VALID,0,INVALID,163.708,VALID,0,VALID,24.9263,VALID,74,VALID,0,
2011-09-14, 00:29:04,VALID,1005.5,VALID,0,INVALID,163.731,VALID,0.100563,VALID,24.9263,VALID,86,VALID,0,
2011-09-14, 00:30:04,VALID,1005.52,VALID,0.5,INVALID,163.723,VALID,0,VALID,24.9087,VALID,121,VALID,0,
2011-09-14, 00:31:04,VALID,1005.46,VALID,0.5,INVALID,163.723,VALID,0.100563,VALID,24.8503,VALID,92,VALID,0,
2011-09-14, 00:32:04,VALID,1005.43,VALID,0.5,INVALID,163.716,VALID,0.100563,VALID,24.8308,VALID,339,VALID,0,
2011-09-14, 00:33:04,VALID,1005.4,VALID,0,INVALID,163.708,VALID,0.100563,VALID,24.7705,VALID,11,VALID,0,
2011-09-14, 00:34:04,VALID,1005.37,VALID,0,INVALID,163.731,VALID,0.100563,VALID,24.79,VALID,16,VALID,0,
2011-09-14, 00:35:04,VALID,1005.35,VALID,0,INVALID,163.678,VALID,0.100563,VALID,24.7705,VALID,11,VALID,0,
2011-09-14, 00:36:04,VALID,1005.28,VALID,0,INVALID,163.739,VALID,0.100563,VALID,24.8113,VALID,1,VALID,0,
2011-09-14, 00:37:04,VALID,1005.25,VALID,0,INVALID,163.716,VALID,0,VALID,24.7919,VALID,355,VALID,0,
2011-09-14, 00:38:04,VALID,1005.21,VALID,0.5,INVALID,163.716,VALID,0,VALID,24.79,VALID,355,VALID,0,
2011-09-14, 00:39:04,VALID,1005.22,VALID,0,INVALID,163.701,VALID,0,VALID,24.8095,VALID,358,VALID,0,
2011-09-14, 00:40:04,VALID,1005.22,VALID,0,INVALID,163.708,VALID,0,VALID,24.8308,VALID,64,VALID,0,
2011-09-14, 00:41:04,VALID,1005.21,VALID,0,INVALID,163.708,VALID,0,VALID,24.79,VALID,66,VALID,0,
2011-09-14, 00:42:04,VALID,1005.16,VALID,0,INVALID,163.716,VALID,0,VALID,24.751,VALID,66,VALID,0,
2011-09-14, 00:43:04,VALID,1005.17,VALID,0,INVALID,163.708,VALID,0.100563,VALID,24.7121,VALID,66,VALID,0,
2011-09-14, 00:44:04,VALID,1005.16,VALID,0,INVALID,163.723,VALID,0.100563,VALID,24.7743,VALID,133,VALID,0,
2011-09-14, 00:45:04,VALID,1005.17,VALID,0,INVALID,163.708,VALID,0,VALID,24.7529,VALID,139,VALID,0,
2011-09-14, 00:46:04,VALID,1005.17,VALID,0,INVALID,163.708,VALID,0,VALID,24.7529,VALID,139,VALID,0,
2011-09-14, 00:47:04,VALID,1005.15,VALID,0,INVALID,163.731,VALID,0,VALID,24.7529,VALID,139,VALID,0,
2011-09-14, 00:48:04,VALID,1005.15,VALID,0,INVALID,163.731,VALID,0.100563,VALID,24.7529,VALID,139,VALID,0,
2011-09-14, 00:49:04,VALID,1005.08,VALID,0,INVALID,163.716,VALID,0,VALID,24.7121,VALID,139,VALID,0,
2011-09-14, 00:50:04,VALID,1005.08,VALID,0,INVALID,163.716,VALID,0,VALID,24.7335,VALID,139,VALID,0,
2011-09-14, 00:51:04,VALID,1005.05,VALID,0,INVALID,163.723,VALID,0.100563,VALID,24.7529,VALID,139,VALID,0,
2011-09-14, 00:52:04,VALID,1005.05,VALID,0,INVALID,163.708,VALID,0,VALID,24.7724,VALID,139,VALID,0,
2011-09-14, 00:53:04,VALID,1005.04,VALID,0,INVALID,163.708,VALID,0,VALID,24.8113,VALID,139,VALID,0,
2011-09-14, 00:54:04,VALID,1005.02,VALID,0,INVALID,163.708,VALID,0.100563,VALID,24.79,VALID,139,VALID,0,
2011-09-14, 00:55:04,VALID,1005.06,VALID,0,INVALID,163.731,VALID,0.100563,VALID,24.8095,VALID,262,VALID,0,
2011-09-14, 00:56:04,VALID,1005.09,VALID,0,INVALID,163.708,VALID,0.100563,VALID,24.8308,VALID,122,VALID,0,
2011-09-14, 00:57:04,VALID,1005.1,VALID,0,INVALID,163.701,VALID,0.100563,VALID,24.8113,VALID,164,VALID,0,
2011-09-14, 00:58:04,VALID,1005.07,VALID,0,INVALID,163.716,VALID,0.100563,VALID,24.8308,VALID,164,VALID,0,
2011-09-14, 00:59:04,VALID,1005.03,VALID,0,INVALID,163.716,VALID,0,VALID,24.8503,VALID,164,VALID,0,
2011-09-14, 01:00:04,VALID,1005.04,VALID,0,INVALID,163.701,VALID,0.100563,VALID,24.8503,VALID,178,VALID,0,
2011-09-14, 01:01:04,VALID,1005.02,VALID,0,INVALID,163.716,VALID,0,VALID,24.8503,VALID,176,VALID,0,
2011-09-14, 01:02:04,VALID,1005.02,VALID,0,INVALID,163.723,VALID,0.100563,VALID,24.8484,VALID,173,VALID,0,
2011-09-14, 01:03:04,VALID,1005.03,VALID,0,INVALID,163.708,VALID,0,VALID,24.8289,VALID,191,VALID,0,
2011-09-14, 01:04:04,VALID,1005.03,VALID,0.5,INVALID,163.708,VALID,0.100563,VALID,24.8289,VALID,147,VALID,0,
2011-09-14, 01:05:04,VALID,1005.02,VALID,0,INVALID,163.716,VALID,0.100563,VALID,24.8308,VALID,146,VALID,0,
2011-09-14, 01:06:04,VALID,1005.03,VALID,0,INVALID,163.708,VALID,0.100563,VALID,24.79,VALID,142,VALID,0,
2011-09-14, 01:07:04,VALID,1005.05,VALID,0,INVALID,163.708,VALID,0,VALID,24.8113,VALID,142,VALID,0,
2011-09-14, 01:08:04,VALID,1005.04,VALID,0,INVALID,163.723,VALID,0.100563,VALID,24.8113,VALID,70,VALID,0,
2011-09-14, 01:09:04,VALID,1005.12,VALID,0,INVALID,163.723,VALID,0,VALID,24.8113,VALID,80,VALID,0,
2011-09-14, 01:10:04,VALID,1005.14,VALID,0.5,INVALID,163.693,VALID,0,VALID,24.8113,VALID,94,VALID,0,
2011-09-14, 01:11:04,VALID,1005.04,VALID,1.5,INVALID,163.723,VALID,0.100563,VALID,24.7919,VALID,64,VALID,0,
2011-09-14, 01:12:04,VALID,1005,VALID,1,INVALID,163.708,VALID,0,VALID,24.7335,VALID,72,VALID,0,
2011-09-14, 01:13:04,VALID,1004.96,VALID,1.5,INVALID,163.731,VALID,0,VALID,24.7335,VALID,140,VALID,0,
2011-09-14, 01:14:04,VALID,1004.86,VALID,1,INVALID,163.723,VALID,0.100563,VALID,24.7335,VALID,192,VALID,0,
2011-09-14, 01:15:04,VALID,1004.81,VALID,0.5,INVALID,163.739,VALID,0.100563,VALID,24.714,VALID,236,VALID,0,
2011-09-14, 01:16:04,VALID,1004.79,VALID,0.5,INVALID,163.739,VALID,0,VALID,24.714,VALID,236,VALID,0,
2011-09-14, 01:17:04,VALID,1004.79,VALID,0,INVALID,163.701,VALID,0,VALID,24.6945,VALID,219,VALID,0,
2011-09-14, 01:18:04,VALID,1004.77,VALID,0,INVALID,163.701,VALID,0,VALID,24.6732,VALID,15,VALID,0,
2011-09-14, 01:19:04,VALID,1004.76,VALID,0,INVALID,163.693,VALID,0,VALID,24.7159,VALID,23,VALID,0,
2011-09-14, 01:20:04,VALID,1004.75,VALID,0,INVALID,163.746,VALID,0.100563,VALID,24.6732,VALID,30,VALID,0,
2011-09-14, 01:21:04,VALID,1004.76,VALID,0,INVALID,163.731,VALID,0,VALID,24.6945,VALID,21,VALID,0,
2011-09-14, 01:22:04,VALID,1004.81,VALID,0,INVALID,163.739,VALID,0,VALID,24.6945,VALID,25,VALID,0,
2011-09-14, 01:23:04,VALID,1004.77,VALID,0,INVALID,163.723,VALID,0,VALID,24.675,VALID,20,VALID,0,
2011-09-14, 01:24:04,VALID,1004.76,VALID,0,INVALID,163.708,VALID,0,VALID,24.675,VALID,10,VALID,0,
2011-09-14, 01:25:04,VALID,1004.71,VALID,0,INVALID,163.708,VALID,0,VALID,24.6945,VALID,17,VALID,0,
2011-09-14, 01:26:04,VALID,1004.69,VALID,0,INVALID,163.701,VALID,0,VALID,24.6537,VALID,18,VALID,0,
2011-09-14, 01:27:04,VALID,1004.65,VALID,0,INVALID,163.731,VALID,0.100563,VALID,24.675,VALID,18,VALID,0,
2011-09-14, 01:28:04,VALID,1004.62,VALID,0,INVALID,163.739,VALID,0.100563,VALID,24.6945,VALID,72,VALID,0,
2011-09-14, 01:29:04,VALID,1004.6,VALID,0,INVALID,163.739,VALID,0,VALID,24.6537,VALID,72,VALID,0,
2011-09-14, 01:30:04,VALID,1004.64,VALID,0,INVALID,163.716,VALID,0.100563,VALID,24.714,VALID,72,VALID,0,
2011-09-14, 01:31:04,VALID,1004.64,VALID,0,INVALID,163.739,VALID,0.100563,VALID,24.714,VALID,72,VALID,0,
2011-09-14, 01:32:04,VALID,1004.72,VALID,0,INVALID,163.693,VALID,0.100563,VALID,24.675,VALID,72,VALID,0,
2011-09-14, 01:33:04,VALID,1004.72,VALID,0,INVALID,163.716,VALID,0.100563,VALID,24.6342,VALID,196,VALID,0,
2011-09-14, 01:34:04,VALID,1004.73,VALID,0,INVALID,163.731,VALID,0.100563,VALID,24.6342,VALID,204,VALID,0,
2011-09-14, 01:35:04,VALID,1004.78,VALID,0,INVALID,163.723,VALID,0.100563,VALID,24.6148,VALID,204,VALID,0,
2011-09-14, 01:36:04,VALID,1004.77,VALID,0,INVALID,163.701,VALID,0,VALID,24.6361,VALID,204,VALID,0,
2011-09-14, 01:37:04,VALID,1004.73,VALID,0,INVALID,163.746,VALID,0,VALID,24.6166,VALID,204,VALID,0,
2011-09-14, 01:38:04,VALID,1004.72,VALID,0,INVALID,163.739,VALID,0,VALID,24.6166,VALID,204,VALID,0,
2011-09-14, 01:39:04,VALID,1004.69,VALID,0,INVALID,163.716,VALID,0.100563,VALID,24.5972,VALID,204,VALID,0,
2011-09-14, 01:40:04,VALID,1004.7,VALID,0,INVALID,163.754,VALID,0,VALID,24.6166,VALID,204,VALID,0,
2011-09-14, 01:41:04,VALID,1004.69,VALID,0,INVALID,163.746,VALID,0.100563,VALID,24.6166,VALID,204,VALID,0,
2011-09-14, 01:42:04,VALID,1004.63,VALID,0,INVALID,163.708,VALID,0.100563,VALID,24.5953,VALID,204,VALID,0,
2011-09-14, 01:43:04,VALID,1004.61,VALID,0,INVALID,163.731,VALID,0.100563,VALID,24.5972,VALID,204,VALID,0,
2011-09-14, 01:44:04,VALID,1004.63,VALID,0,INVALID,163.723,VALID,0,VALID,24.6361,VALID,204,VALID,0,
2011-09-14, 01:45:04,VALID,1004.63,VALID,0,INVALID,163.746,VALID,0.100563,VALID,24.6556,VALID,204,VALID,0,
2011-09-14, 01:46:04,VALID,1004.65,VALID,0,INVALID,163.746,VALID,0,VALID,24.6361,VALID,204,VALID,0,
2011-09-14, 01:47:04,VALID,1004.67,VALID,0,INVALID,163.731,VALID,0,VALID,24.6769,VALID,204,VALID,0,
2011-09-14, 01:48:04,VALID,1004.68,VALID,0,INVALID,163.701,VALID,0,VALID,24.675,VALID,204,VALID,0,
2011-09-14, 01:49:04,VALID,1004.67,VALID,0,INVALID,163.716,VALID,0,VALID,24.6769,VALID,262,VALID,0,
2011-09-14, 01:50:04,VALID,1004.65,VALID,0,INVALID,163.716,VALID,0,VALID,24.6574,VALID,264,VALID,0,
2011-09-14, 01:51:04,VALID,1004.65,VALID,0,INVALID,163.708,VALID,0,VALID,24.6593,VALID,268,VALID,0,
2011-09-14, 01:52:04,VALID,1004.63,VALID,0,INVALID,163.723,VALID,0,VALID,24.6574,VALID,268,VALID,0,
2011-09-14, 01:53:04,VALID,1004.63,VALID,0,INVALID,163.739,VALID,0,VALID,24.6556,VALID,344,VALID,0,
2011-09-14, 01:54:04,VALID,1004.63,VALID,0,INVALID,163.701,VALID,0,VALID,24.638,VALID,359,VALID,0,
2011-09-14, 01:55:04,VALID,1004.64,VALID,0,INVALID,163.746,VALID,0,VALID,24.6593,VALID,358,VALID,0,
2011-09-14, 01:56:04,VALID,1004.66,VALID,0,INVALID,163.723,VALID,0,VALID,24.638,VALID,358,VALID,0,
2011-09-14, 01:57:04,VALID,1004.67,VALID,0,INVALID,163.716,VALID,0,VALID,24.6166,VALID,358,VALID,0,
2011-09-14, 01:58:04,VALID,1004.72,VALID,0,INVALID,163.731,VALID,0,VALID,24.638,VALID,358,VALID,0,
2011-09-14, 01:59:04,VALID,1004.7,VALID,0,INVALID,163.716,VALID,0,VALID,24.638,VALID,358,VALID,0,
2011-09-14, 02:00:04,VALID,1004.7,VALID,0,INVALID,163.708,VALID,0,VALID,24.6166,VALID,358,VALID,0,
2011-09-14, 02:01:04,VALID,1004.71,VALID,0.5,INVALID,163.723,VALID,0,VALID,24.6185,VALID,358,VALID,0,
2011-09-14, 02:02:04,VALID,1004.66,VALID,0,INVALID,163.723,VALID,0,VALID,24.6166,VALID,358,VALID,0,
2011-09-14, 02:03:04,VALID,1004.63,VALID,0,INVALID,163.769,VALID,0,VALID,24.5972,VALID,211,VALID,0,
2011-09-14, 02:04:04,VALID,1004.65,VALID,0,INVALID,163.739,VALID,0,VALID,24.5972,VALID,212,VALID,0,
2011-09-14, 02:05:04,VALID,1004.67,VALID,0,INVALID,163.731,VALID,0,VALID,24.5972,VALID,212,VALID,0,
2011-09-14, 02:06:04,VALID,1004.65,VALID,0,INVALID,163.723,VALID,0,VALID,24.6185,VALID,212,VALID,0,
2011-09-14, 02:07:04,VALID,1004.66,VALID,0.5,INVALID,163.723,VALID,0,VALID,24.6166,VALID,212,VALID,0,
2011-09-14, 02:08:04,VALID,1004.65,VALID,0,INVALID,163.716,VALID,0,VALID,24.638,VALID,212,VALID,0,
2011-09-14, 02:09:04,VALID,1004.63,VALID,0,INVALID,163.754,VALID,0,VALID,24.638,VALID,212,VALID,0,
2011-09-14, 02:10:04,VALID,1004.59,VALID,0,INVALID,163.746,VALID,0,VALID,24.6166,VALID,212,VALID,0,
2011-09-14, 02:11:04,VALID,1004.57,VALID,0,INVALID,163.723,VALID,0,VALID,24.638,VALID,212,VALID,0,
2011-09-14, 02:12:04,VALID,1004.55,VALID,0,INVALID,163.739,VALID,0,VALID,24.638,VALID,212,VALID,0,
2011-09-14, 02:13:04,VALID,1004.57,VALID,0,INVALID,163.716,VALID,0,VALID,24.6185,VALID,212,VALID,0,
2011-09-14, 02:14:04,VALID,1004.55,VALID,0,INVALID,163.739,VALID,0,VALID,24.5972,VALID,212,VALID,0,
2011-09-14, 02:15:04,VALID,1004.53,VALID,0,INVALID,163.739,VALID,0,VALID,24.5777,VALID,212,VALID,0,
2011-09-14, 02:16:04,VALID,1004.54,VALID,0,INVALID,163.739,VALID,0,VALID,24.5972,VALID,270,VALID,0,
2011-09-14, 02:17:04,VALID,1004.55,VALID,0,INVALID,163.723,VALID,0,VALID,24.5972,VALID,9,VALID,0,
2011-09-14, 02:18:04,VALID,1004.55,VALID,0,INVALID,163.716,VALID,0,VALID,24.5972,VALID,4,VALID,0,
2011-09-14, 02:19:04,VALID,1004.52,VALID,0,INVALID,163.708,VALID,0,VALID,24.6166,VALID,4,VALID,0,
2011-09-14, 02:20:04,VALID,1004.54,VALID,0,INVALID,163.739,VALID,0,VALID,24.5972,VALID,341,VALID,0,
2011-09-14, 02:21:04,VALID,1004.47,VALID,0,INVALID,163.746,VALID,0.100563,VALID,24.5758,VALID,343,VALID,0,
2011-09-14, 02:22:04,VALID,1004.48,VALID,0,INVALID,163.716,VALID,0.100563,VALID,24.5972,VALID,343,VALID,0,
2011-09-14, 02:23:04,VALID,1004.45,VALID,0,INVALID,163.716,VALID,0.100563,VALID,24.5758,VALID,337,VALID,0,
2011-09-14, 02:24:04,VALID,1004.47,VALID,0,INVALID,163.716,VALID,0,VALID,24.5388,VALID,3,VALID,0,
2011-09-14, 02:25:04,VALID,1004.5,VALID,0,INVALID,163.716,VALID,0,VALID,24.5174,VALID,350,VALID,0,
2011-09-14, 02:26:04,VALID,1004.42,VALID,0,INVALID,163.716,VALID,0,VALID,24.5388,VALID,351,VALID,0,
2011-09-14, 02:27:04,VALID,1004.42,VALID,0,INVALID,163.716,VALID,0.100563,VALID,24.498,VALID,350,VALID,0,
2011-09-14, 02:28:04,VALID,1004.43,VALID,0,INVALID,163.731,VALID,0,VALID,24.4998,VALID,350,VALID,0,
2011-09-14, 02:29:04,VALID,1004.42,VALID,0,INVALID,163.746,VALID,0,VALID,24.4804,VALID,14,VALID,0,
2011-09-14, 02:30:04,VALID,1004.44,VALID,0,INVALID,163.739,VALID,0,VALID,24.4201,VALID,17,VALID,0,
2011-09-14, 02:31:04,VALID,1004.45,VALID,0,INVALID,163.716,VALID,0,VALID,24.4201,VALID,18,VALID,0,
2011-09-14, 02:32:04,VALID,1004.41,VALID,0,INVALID,163.739,VALID,0,VALID,24.3812,VALID,19,VALID,0,
2011-09-14, 02:33:04,VALID,1004.4,VALID,0,INVALID,163.754,VALID,0,VALID,24.3812,VALID,31,VALID,0,
2011-09-14, 02:34:04,VALID,1004.4,VALID,0,INVALID,163.754,VALID,0,VALID,24.4025,VALID,31,VALID,0,
2011-09-14, 02:35:04,VALID,1004.37,VALID,0,INVALID,163.716,VALID,0.100563,VALID,24.383,VALID,31,VALID,0,
2011-09-14, 02:36:04,VALID,1004.4,VALID,0,INVALID,163.762,VALID,0,VALID,24.383,VALID,31,VALID,0,
2011-09-14, 02:37:04,VALID,1004.39,VALID,0,INVALID,163.746,VALID,0,VALID,24.3636,VALID,31,VALID,0,
2011-09-14, 02:38:04,VALID,1004.38,VALID,0,INVALID,163.739,VALID,0,VALID,24.3228,VALID,31,VALID,0,
2011-09-14, 02:39:04,VALID,1004.35,VALID,0,INVALID,163.746,VALID,0,VALID,24.3033,VALID,31,VALID,0,
2011-09-14, 02:40:04,VALID,1004.32,VALID,0,INVALID,163.739,VALID,0,VALID,24.282,VALID,31,VALID,0,
2011-09-14, 02:41:04,VALID,1004.28,VALID,0,INVALID,163.746,VALID,0,VALID,24.3052,VALID,31,VALID,0,
2011-09-14, 02:42:04,VALID,1004.26,VALID,0,INVALID,163.739,VALID,0,VALID,24.3052,VALID,31,VALID,0,
2011-09-14, 02:43:04,VALID,1004.26,VALID,0,INVALID,163.762,VALID,0,VALID,24.3052,VALID,31,VALID,0,
2011-09-14, 02:44:04,VALID,1004.26,VALID,0,INVALID,163.754,VALID,0,VALID,24.3052,VALID,30,VALID,0,
2011-09-14, 02:45:04,VALID,1004.24,VALID,0,INVALID,163.746,VALID,0,VALID,24.3052,VALID,230,VALID,0,
2011-09-14, 02:46:04,VALID,1004.25,VALID,0,INVALID,163.769,VALID,0,VALID,24.2644,VALID,231,VALID,0,
2011-09-14, 02:47:04,VALID,1004.26,VALID,0,INVALID,163.739,VALID,0,VALID,24.3052,VALID,231,VALID,0,
2011-09-14, 02:48:04,VALID,1004.27,VALID,0,INVALID,163.731,VALID,0,VALID,24.3246,VALID,236,VALID,0,
2011-09-14, 02:49:04,VALID,1004.29,VALID,0,INVALID,163.769,VALID,0,VALID,24.3246,VALID,238,VALID,0,
2011-09-14, 02:50:04,VALID,1004.32,VALID,0,INVALID,163.777,VALID,0,VALID,24.3441,VALID,267,VALID,0,
2011-09-14, 02:51:04,VALID,1004.38,VALID,0,INVALID,163.731,VALID,0,VALID,24.3441,VALID,346,VALID,0,
2011-09-14, 02:52:04,VALID,1004.37,VALID,0,INVALID,163.754,VALID,0,VALID,24.3441,VALID,343,VALID,0,
2011-09-14, 02:53:04,VALID,1004.41,VALID,0,INVALID,163.754,VALID,0,VALID,24.3246,VALID,346,VALID,0,
2011-09-14, 02:54:04,VALID,1004.43,VALID,0,INVALID,163.746,VALID,0,VALID,24.3459,VALID,345,VALID,0,
2011-09-14, 02:55:04,VALID,1004.41,VALID,0,INVALID,163.762,VALID,0,VALID,24.3265,VALID,356,VALID,0,
2011-09-14, 02:56:04,VALID,1004.4,VALID,0,INVALID,163.777,VALID,0,VALID,24.3052,VALID,22,VALID,0,
2011-09-14, 02:57:04,VALID,1004.41,VALID,0,INVALID,163.731,VALID,0,VALID,24.3052,VALID,24,VALID,0,
2011-09-14, 02:58:04,VALID,1004.4,VALID,0,INVALID,163.739,VALID,0,VALID,24.2839,VALID,24,VALID,0,
2011-09-14, 02:59:04,VALID,1004.4,VALID,0,INVALID,163.739,VALID,0,VALID,24.3052,VALID,24,VALID,0,
2011-09-14, 03:00:04,VALID,1004.38,VALID,0,INVALID,163.746,VALID,0,VALID,24.2857,VALID,341,VALID,0,
2011-09-14, 03:01:04,VALID,1004.36,VALID,0,INVALID,163.746,VALID,0,VALID,24.2875,VALID,283,VALID,0,
2011-09-14, 03:02:04,VALID,1004.34,VALID,0,INVALID,163.754,VALID,0,VALID,24.2662,VALID,283,VALID,0,
2011-09-14, 03:03:04,VALID,1004.35,VALID,0,INVALID,163.754,VALID,0,VALID,24.2468,VALID,343,VALID,0,
2011-09-14, 03:04:04,VALID,1004.33,VALID,0,INVALID,163.769,VALID,0,VALID,24.2468,VALID,354,VALID,0,
2011-09-14, 03:05:04,VALID,1004.34,VALID,0,INVALID,163.739,VALID,0,VALID,24.2078,VALID,354,VALID,0,
2011-09-14, 03:06:04,VALID,1004.36,VALID,0,INVALID,163.746,VALID,0,VALID,24.2078,VALID,344,VALID,0,
2011-09-14, 03:07:04,VALID,1004.37,VALID,0,INVALID,163.769,VALID,0,VALID,24.1865,VALID,344,VALID,0,
2011-09-14, 03:08:04,VALID,1004.39,VALID,0,INVALID,163.754,VALID,0,VALID,24.1884,VALID,344,VALID,0,
2011-09-14, 03:09:04,VALID,1004.39,VALID,0,INVALID,163.754,VALID,0,VALID,24.1884,VALID,344,VALID,0,
2011-09-14, 03:10:04,VALID,1004.39,VALID,0,INVALID,163.777,VALID,0,VALID,24.1671,VALID,344,VALID,0,
2011-09-14, 03:11:04,VALID,1004.43,VALID,0,INVALID,163.762,VALID,0,VALID,24.1671,VALID,344,VALID,0,
2011-09-14, 03:12:04,VALID,1004.43,VALID,0,INVALID,163.769,VALID,0,VALID,24.1689,VALID,344,VALID,0,
2011-09-14, 03:13:04,VALID,1004.42,VALID,0,INVALID,163.777,VALID,0,VALID,24.1689,VALID,342,VALID,0,
2011-09-14, 03:14:04,VALID,1004.43,VALID,0,INVALID,163.762,VALID,0,VALID,24.1494,VALID,322,VALID,0,
2011-09-14, 03:15:04,VALID,1004.43,VALID,0,INVALID,163.784,VALID,0,VALID,24.1494,VALID,322,VALID,0,
2011-09-14, 03:16:04,VALID,1004.41,VALID,0,INVALID,163.762,VALID,0,VALID,24.13,VALID,322,VALID,0,
2011-09-14, 03:17:04,VALID,1004.39,VALID,0,INVALID,163.739,VALID,0.100563,VALID,24.1068,VALID,322,VALID,0,
2011-09-14, 03:18:04,VALID,1004.38,VALID,0,INVALID,163.769,VALID,0.100563,VALID,24.1087,VALID,322,VALID,0,
2011-09-14, 03:19:04,VALID,1004.38,VALID,0,INVALID,163.784,VALID,0.100563,VALID,24.1105,VALID,322,VALID,0,
2011-09-14, 03:20:04,VALID,1004.38,VALID,0,INVALID,163.746,VALID,0.100563,VALID,24.13,VALID,322,VALID,0,
2011-09-14, 03:21:04,VALID,1004.36,VALID,0,INVALID,163.762,VALID,0.100563,VALID,24.13,VALID,322,VALID,0,
2011-09-14, 03:22:04,VALID,1004.33,VALID,0,INVALID,163.754,VALID,0.100563,VALID,24.091,VALID,340,VALID,0,
2011-09-14, 03:23:04,VALID,1004.34,VALID,0,INVALID,163.769,VALID,0.100563,VALID,24.0716,VALID,338,VALID,0,
2011-09-14, 03:24:04,VALID,1004.31,VALID,0,INVALID,163.769,VALID,0.100563,VALID,24.0503,VALID,338,VALID,0,
2011-09-14, 03:25:04,VALID,1004.3,VALID,0,INVALID,163.762,VALID,0.100563,VALID,24.0503,VALID,338,VALID,0,
2011-09-14, 03:26:04,VALID,1004.27,VALID,0,INVALID,163.754,VALID,0.100563,VALID,24.0716,VALID,338,VALID,0,
2011-09-14, 03:27:04,VALID,1004.3,VALID,0,INVALID,163.754,VALID,0.100563,VALID,24.091,VALID,338,VALID,0,
2011-09-14, 03:28:04,VALID,1004.31,VALID,0,INVALID,163.754,VALID,0.100563,VALID,24.0929,VALID,338,VALID,0,
2011-09-14, 03:29:04,VALID,1004.29,VALID,0,INVALID,163.762,VALID,0.100563,VALID,24.0697,VALID,338,VALID,0,
2011-09-14, 03:30:04,VALID,1004.28,VALID,0,INVALID,163.777,VALID,0.100563,VALID,24.0503,VALID,338,VALID,0,
2011-09-14, 03:31:04,VALID,1004.25,VALID,0,INVALID,163.769,VALID,0.100563,VALID,24.0716,VALID,338,VALID,0,
2011-09-14, 03:32:04,VALID,1004.24,VALID,0,INVALID,163.769,VALID,0.100563,VALID,24.0521,VALID,338,VALID,0,
2011-09-14, 03:33:04,VALID,1004.18,VALID,0,INVALID,163.784,VALID,0.100563,VALID,24.0521,VALID,338,VALID,0,
2011-09-14, 03:34:04,VALID,1004.16,VALID,0,INVALID,163.762,VALID,0,VALID,24.0326,VALID,338,VALID,0,
2011-09-14, 03:35:04,VALID,1004.17,VALID,0,INVALID,163.769,VALID,0.100563,VALID,24.0308,VALID,338,VALID,0,
2011-09-14, 03:36:04,VALID,1004.19,VALID,0,INVALID,163.777,VALID,0.100563,VALID,24.0326,VALID,355,VALID,0,
2011-09-14, 03:37:04,VALID,1004.19,VALID,0,INVALID,163.769,VALID,0.100563,VALID,24.0503,VALID,355,VALID,0,
2011-09-14, 03:38:04,VALID,1004.2,VALID,0,INVALID,163.769,VALID,0.100563,VALID,24.0521,VALID,36,VALID,0,
2011-09-14, 03:39:04,VALID,1004.25,VALID,0,INVALID,163.762,VALID,0.100563,VALID,24.0521,VALID,20,VALID,0,
2011-09-14, 03:40:04,VALID,1004.31,VALID,0,INVALID,163.784,VALID,0,VALID,24.0521,VALID,20,VALID,0,
2011-09-14, 03:41:04,VALID,1004.39,VALID,0,INVALID,163.777,VALID,0.100563,VALID,24.0521,VALID,20,VALID,0,
2011-09-14, 03:42:04,VALID,1004.44,VALID,0,INVALID,163.762,VALID,0.100563,VALID,24.0326,VALID,52,VALID,0,
2011-09-14, 03:43:04,VALID,1004.47,VALID,0,INVALID,163.746,VALID,0.100563,VALID,24.0326,VALID,52,VALID,0,
2011-09-14, 03:44:04,VALID,1004.46,VALID,0,INVALID,163.777,VALID,0.100563,VALID,24.0326,VALID,52,VALID,0,
2011-09-14, 03:45:04,VALID,1004.42,VALID,0,INVALID,163.754,VALID,0.100563,VALID,24.0132,VALID,52,VALID,0,
2011-09-14, 03:46:04,VALID,1004.37,VALID,0,INVALID,163.769,VALID,0,VALID,23.9937,VALID,52,VALID,0,
2011-09-14, 03:47:04,VALID,1004.29,VALID,0,INVALID,163.769,VALID,0,VALID,24.0345,VALID,52,VALID,0,
2011-09-14, 03:48:04,VALID,1004.21,VALID,0,INVALID,163.762,VALID,0,VALID,24.0539,VALID,52,VALID,0,
2011-09-14, 03:49:04,VALID,1004.15,VALID,0,INVALID,163.8,VALID,0,VALID,24.0132,VALID,230,VALID,0,
2011-09-14, 03:50:04,VALID,1004.11,VALID,0,INVALID,163.762,VALID,0,VALID,24.015,VALID,232,VALID,0,